DW5575 Weather Reports


time (UTC)temp
C
wind
direction
speed
KPH
gust
KPH
rain 1hr
cm
rain 24hr
cm
rain mn
cm
humidity
%
barometer
mb
20260510020009 24 101 0.0 1.6 0.00 0.00 0.00 67 1009.5
20260510014512 25 225 0.0 1.6 0.00 0.00 0.00 61 1008.9
20260510013008 25 227 0.0 1.6 0.00 0.00 0.00 60 1008.5
20260510011507 25 227 0.0 3.2 0.00 0.00 0.00 59 1008.5
20260510010006 25 208 0.0 1.6 0.00 0.00 0.00 59 1008.4
20260510004505 25 315 1.6 12.9 0.00 0.00 0.00 61 1008.2
20260510003005 26 230 1.6 4.8 0.00 0.00 0.00 62 1008.3
20260510001504 26 184 1.6 12.9 0.00 0.00 0.00 54 1008.1
20260510000002 27 213 4.8 12.9 0.00 0.00 0.00 61 1008.4
20260509234601 29 263 0.0 4.8 0.00 0.00 0.00 67 1008.0
20260509233001 30 60 0.0 4.8 0.00 0.00 0.00 65 1007.6
20260509231627 30 53 0.0 6.4 0.00 0.00 0.00 62 1007.6
20260509230109 31 355 0.0 1.6 0.00 0.00 0.00 63 1007.6
20260509224600 31 318 0.0 3.2 0.00 0.00 0.00 62 1007.4
20260509223111 31 71 0.0 1.6 0.00 0.00 0.00 61 1007.4
20260509221619 31 105 0.0 1.6 0.00 0.00 0.00 63 1007.2
20260509220058 31 85 0.0 3.2 0.00 0.00 0.00 61 1007.3
20260509214603 31 42 0.0 4.8 0.00 0.00 0.00 61 1007.2
20260509213056 31 277 0.0 3.2 0.00 0.00 0.00 60 1007.2
20260509211556 31 196 0.0 4.8 0.00 0.00 0.00 61 1007.3
20260509210056 31 177 0.0 4.8 0.00 0.00 0.00 59 1007.5
20260509204550 31 319 0.0 4.8 0.00 0.00 0.00 59 1007.9
20260509203050 32 273 0.0 8.0 0.00 0.00 0.00 59 1008.1
20260509201548 32 288 1.6 4.8 0.00 0.00 0.00 58 1008.2
20260509200051 32 121 1.6 6.4 0.00 0.00 0.00 58 1008.3
20260509194551 33 175 0.0 4.8 0.00 0.00 0.00 58 1008.5
20260509193042 31 264 1.6 4.8 0.00 0.00 0.00 58 1008.6
20260509191539 31 345 0.0 4.8 0.00 0.00 0.00 61 1008.7
20260509190036 31 349 1.6 4.8 0.00 0.00 0.00 61 1008.9
20260509184536 31 309 0.0 4.8 0.00 0.00 0.00 64 1008.9
20260509183041 30 360 0.0 6.4 0.00 0.00 0.00 67 1009.2
20260509181528 30 215 0.0 8.0 0.00 0.00 0.00 69 1009.3
20260509180026 30 195 0.0 6.4 0.00 0.00 0.00 69 1009.5
20260509174540 30 232 0.0 4.8 0.00 0.00 0.00 70 1009.9
20260509173023 29 49 1.6 6.4 0.00 0.00 0.00 72 1010.1
20260509171522 28 257 1.6 8.0 0.00 0.00 0.00 74 1010.0
20260509170015 27 83 0.0 3.2 0.00 0.00 0.00 78 1010.2
20260509164511 27 265 0.0 3.2 0.00 0.00 0.00 81 1010.3
20260509163009 26 336 0.0 1.6 0.00 0.00 0.00 81 1010.3
20260509161506 26 35 0.0 0.0 0.00 0.00 0.00 81 1010.5
20260509160007 25 35 0.0 1.6 0.00 0.00 0.00 83 1010.5
20260509154503 25 88 0.0 1.6 0.00 0.00 0.00 84 1010.4
20260509153002 25 109 0.0 1.6 0.00 0.00 0.00 85 1010.4
20260509151601 25 109 0.0 1.6 0.00 0.00 0.00 86 1010.5
20260509150104 25 109 0.0 1.6 0.00 0.00 0.00 87 1010.4
20260509144558 24 109 0.0 0.0 0.00 0.00 0.00 89 1009.9
20260509143100 24 109 0.0 1.6 0.00 0.00 0.00 89 1009.9
20260509141559 23 109 0.0 1.6 0.00 0.00 0.00 89 1009.8
20260509134552 23 119 0.0 1.6 0.00 0.00 0.00 90 1009.8
20260509133052 23 119 0.0 1.6 0.00 0.00 0.00 90 1010.1
20260509131553 23 184 0.0 1.6 0.00 0.00 0.00 90 1010.5
20260509130048 23 317 0.0 1.6 0.00 0.00 0.00 90 1010.7
20260509124546 23 317 0.0 1.6 0.00 0.00 0.00 90 1010.3
20260509123101 23 317 0.0 0.0 0.00 0.00 0.00 90 1010.3
20260509121546 23 317 0.0 1.6 0.00 0.00 0.00 90 1010.2
20260509120045 23 317 0.0 1.6 0.00 0.00 0.00 89 1010.1
20260509114545 23 317 0.0 0.0 0.00 0.00 0.00 89 1009.8
20260509113043 23 311 0.0 3.2 0.00 0.00 0.00 89 1010.3
20260509111542 23 281 0.0 1.6 0.00 0.00 0.00 89 1010.3
20260509110041 23 281 0.0 1.6 0.00 0.00 0.00 89 1010.2
20260509104541 23 281 0.0 1.6 0.00 0.00 0.00 89 1009.6
20260509103047 23 281 0.0 0.0 0.00 0.00 0.00 89 1009.4
20260509101539 23 281 0.0 1.6 0.00 0.00 0.00 89 1009.5
20260509100042 23 29 0.0 1.6 0.00 0.00 0.00 89 1009.2
20260509094538 23 29 0.0 0.0 0.00 0.00 0.00 89 1009.2
20260509093042 23 29 0.0 1.6 0.00 0.00 0.00 89 1009.2
20260509091537 23 29 0.0 0.0 0.00 0.00 0.00 89 1009.6
20260509090045 23 29 0.0 0.0 0.00 0.00 0.00 89 1009.5
20260509084536 23 29 0.0 1.6 0.00 0.00 0.00 89 1009.7
20260509083034 23 29 0.0 0.0 0.00 0.00 0.00 89 1009.5
20260509081528 23 29 0.0 0.0 0.00 0.00 0.00 89 1009.4
20260509080024 23 29 0.0 0.0 0.00 0.00 0.00 89 1009.4
20260509074519 23 29 0.0 1.6 0.00 0.00 0.00 89 1009.4
20260509073017 23 116 0.0 1.6 0.00 0.00 0.00 88 1009.4
20260509071514 23 237 0.0 1.6 0.00 0.00 0.00 88 1009.4
20260509070014 23 237 0.0 1.6 0.00 0.00 0.00 88 1009.7
20260509064511 23 237 0.0 1.6 0.00 0.00 0.00 88 1009.7
20260509063014 23 237 0.0 0.0 0.00 0.00 0.00 87 1009.9
20260509061507 23 237 0.0 0.0 0.00 0.00 0.00 87 1010.1
20260509060005 23 237 0.0 0.0 0.00 0.00 0.00 87 1010.0
20260509054502 23 237 0.0 0.0 0.00 0.00 0.00 87 1010.1
20260509053101 23 237 0.0 1.6 0.00 0.00 0.00 87 1010.1
20260509051553 23 237 0.0 1.6 0.00 0.00 0.00 87 1010.2
20260509050053 23 133 0.0 1.6 0.00 0.00 0.00 87 1010.2
20260509044547 23 133 0.0 0.0 0.00 0.00 0.00 86 1010.4
20260509043057 23 133 0.0 0.0 0.00 0.00 0.00 86 1010.3
20260509041546 23 133 0.0 1.6 0.00 0.00 0.00 86 1010.3
20260509040048 23 133 0.0 0.0 0.00 0.00 0.00 86 1010.0
20260509034550 23 133 0.0 3.2 0.00 0.00 0.00 86 1009.7
20260509033045 23 137 0.0 1.6 0.00 0.00 0.00 86 1009.9
20260509031601 23 215 0.0 1.6 0.00 0.00 0.00 86 1009.8
20260509030044 23 210 0.0 1.6 0.00 0.00 0.00 85 1009.7
20260509024543 23 105 0.0 1.6 0.00 0.00 0.00 85 1009.7
20260509023042 23 31 0.0 0.0 0.00 0.00 0.00 85 1009.3
20260509021542 23 21 0.0 1.6 0.00 0.00 0.00 85 1009.1